This demonstration page uses our WeatherBlox Daily Observations layout. Learn more.

Hourly Observations for August 25, 2018

Temp ( °F °C ) Dew Point ( °F °C ) Humidity (%) Winds ( mph kmh ) Pressure ( in mb ) Visibility ( mi km ) Precip ( " mm )
12:15 am 00:15 Clear 71 21.5 61 16 71 71 SW 6 9 29.83 1010 10 16.09344 0 0
12:35 am 00:35 Clear 69 20.5 61 16 76 76 SW 3 6 29.83 1010 10 16.09344 0 0
12:55 am 00:55 Clear 68 20.1 61 16 77 77 WSW 5 7 29.83 1010 10 16.09344 0 0
1:15 am 01:15 Clear 67 19.6 60 15.7 78 78 WSW 5 7 29.83 1010 10 16.09344 0 0
1:35 am 01:35 Clear 67 19.5 60 15.6 78 78 Calm 29.83 1010 10 16.09344 0 0
1:55 am 01:55 Clear 64 17.7 60 15.4 86 86 Calm 29.85 1011 10 16.09344 0 0
2:15 am 02:15 Clear 63 17.4 59 15 86 86 Calm 29.85 1011 10 16.09344 0 0
2:35 am 02:35 Clear 62 16.7 58 14.5 87 87 Calm 29.85 1011 10 16.09344 0 0
2:55 am 02:55 Clear 62 16.5 58 14.6 89 89 Calm 29.85 1011 10 16.09344 0 0
3:15 am 03:15 Clear 61 16.1 58 14.7 91 91 Calm 29.85 1011 10 16.09344 0 0
3:35 am 03:35 Clear 61 16 58 14.5 91 91 Calm 29.85 1011 10 16.09344 0 0
3:55 am 03:55 Clear 60 15.8 58 14.6 93 93 Calm 29.85 1011 10 16.09344 0 0
4:15 am 04:15 Clear 59 15.2 57 14.1 93 93 Calm 29.85 1011 10 16.09344 0 0
4:35 am 04:35 Clear 60 15.5 58 14.4 93 93 Calm 29.85 1011 10 16.09344 0 0
4:55 am 04:55 Clear 60 15.3 57 13.8 91 91 Calm 29.85 1011 10 16.09344 0 0
5:15 am 05:15 Clear 58 14.5 56 13.6 94 94 Calm 29.88 1012 10 16.09344 0 0
5:35 am 05:35 Clear 58 14.3 57 13.8 97 97 Calm 29.88 1012 10 16.09344 0 0
5:55 am 05:55 Clear 59 14.8 58 14.4 97 97 Calm 29.88 1012 10 16.09344 0 0
6:15 am 06:15 Clear 58 14.4 57 13.8 96 96 Calm 29.88 1012 10 16.09344 0 0
6:35 am 06:35 Clear 57 13.7 56 13.5 99 99 Calm 29.88 1012 10 16.09344 0 0
6:55 am 06:55 Clear 56 13.5 56 13.3 99 99 Calm 29.88 1012 10 16.09344 0 0
7:15 am 07:15 Sunny 57 13.9 56 13.5 97 97 Calm 29.91 1013 7 11.265408 0 0
7:35 am 07:35 Sunny 58 14.4 57 13.7 96 96 Calm 29.91 1013 10 16.09344 0 0
7:55 am 07:55 Sunny 59 15 58 14.3 96 96 Calm 29.91 1013 10 16.09344 0 0
8:15 am 08:15 Sunny 61 16.2 60 15.6 96 96 Calm 29.88 1012 7 11.265408 0 0
8:35 am 08:35 Sunny 64 17.7 62 16.4 92 92 Calm 29.88 1012 7 11.265408 0 0
8:55 am 08:55 Sunny 66 18.8 62 16.9 89 89 Calm 29.88 1012 10 16.09344 0 0
9:15 am 09:15 Sunny 68 19.8 63 17.3 86 86 Calm 29.85 1011 10 16.09344 0 0
9:35 am 09:35 Sunny 70 21.1 64 17.7 81 81 SSE 3 6 29.85 1011 7 11.265408 0 0
9:55 am 09:55 Sunny 71 21.8 66 18.9 84 84 SSE 3 6 29.85 1011 10 16.09344 0 0
10:15 am 10:15 Sunny 74 23.2 67 19.4 79 79 S 3 6 29.83 1010 10 16.09344 0 0
10:35 am 10:35 Sunny 76 24.5 66 18.9 71 71 Calm 29.85 1011 10 16.09344 0 0
10:55 am 10:55 Sunny 78 25.6 67 19.3 68 68 S 3 6 29.85 1011 10 16.09344 0 0
11:15 am 11:15 Sunny 79 26.1 67 19.4 67 67 SSE 7 11 29.85 1011 10 16.09344 0 0
11:35 am 11:35 Sunny 80 26.8 68 19.8 66 66 S 7 11 29.83 1010 10 16.09344 0 0
11:55 am 11:55 Sunny 81 27.4 68 20.2 65 65 SSE 6 9 29.83 1010 10 16.09344 0 0
12:15 pm 12:15 Sunny 83 28.3 67 19.7 60 60 SSE 8 13 29.8 1009 10 16.09344 0 0
12:35 pm 12:35 Sunny 84 29 67 19.5 57 57 S 9 15 29.8 1009 10 16.09344 0 0
12:55 pm 12:55 Sunny 85 29.5 66 18.9 53 53 SSE 12 19 29.8 1009 10 16.09344 0 0
1:15 pm 13:15 Sunny 85 29.5 66 18.8 53 53 S 13 20 29.8 1009 10 16.09344 0 0
1:35 pm 13:35 Sunny 85 29.7 67 19.7 55 55 S 12 19 29.8 1009 10 16.09344 0 0
1:55 pm 13:55 Sunny 86 30.1 69 20.7 57 57 SSE 12 19 29.77 1008 10 16.09344 0 0
2:15 pm 14:15 Sunny 87 30.5 70 21 57 57 SSE 13 20 29.77 1008 10 16.09344 0 0
2:35 pm 14:35 Sunny 87 30.5 70 20.9 57 57 SSE 15 24 29.77 1008 10 16.09344 0 0
2:55 pm 14:55 Sunny 87 30.4 67 19.6 52 52 S 12 19 29.77 1008 10 16.09344 0 0
3:15 pm 15:15 Sunny 87 30.5 68 20.2 54 54 SSE 10 17 29.77 1008 10 16.09344 0 0
3:35 pm 15:35 Sunny 87 30.4 68 20.1 54 54 SSE 12 19 29.77 1008 10 16.09344 0 0
3:55 pm 15:55 Sunny 87 30.4 64 17.9 47 47 SSE 10 17 29.77 1008 10 16.09344 0 0
4:15 pm 16:15 Sunny 87 30.5 65 18.4 48 48 SSE 10 17 29.77 1008 10 16.09344 0 0
4:35 pm 16:35 Sunny 87 30.3 67 19.4 52 52 SSE 9 15 29.77 1008 10 16.09344 0 0
4:55 pm 16:55 Sunny 87 30.5 68 20.2 54 54 SSE 8 13 29.77 1008 10 16.09344 0 0
5:15 pm 17:15 Sunny 87 30.5 71 21.4 58 58 SSE 8 13 29.74 1007 10 16.09344 0 0
5:35 pm 17:35 Sunny 87 30.5 70 21 57 57 SSE 9 15 29.74 1007 10 16.09344 0 0
5:55 pm 17:55 Sunny 85 29.3 70 20.9 61 61 SE 6 9 29.77 1008 10 16.09344 0 0
6:15 pm 18:15 Sunny 83 28.6 71 21.5 65 65 SSE 7 11 29.77 1008 10 16.09344 0 0
6:35 pm 18:35 Sunny 82 27.6 72 22 72 72 SSE 3 6 29.77 1008 10 16.09344 0 0
6:55 pm 18:55 Sunny 81 27.2 72 22.3 75 75 SE 6 9 29.77 1008 10 16.09344 0 0
7:15 pm 19:15 Sunny 79 26.1 72 22 78 78 SE 5 7 29.77 1008 10 16.09344 0 0
7:35 pm 19:35 Sunny 78 25.4 72 22.1 82 82 SE 5 7 29.8 1009 10 16.09344 0 0
7:55 pm 19:55 Sunny 77 25.2 71 21.8 82 82 SSE 7 11 29.8 1009 10 16.09344 0 0
8:15 pm 20:15 Sunny 76 24.4 70 21.2 82 82 SE 5 7 29.8 1009 10 16.09344 0 0
8:35 pm 20:35 Clear 74 23.3 71 21.6 90 90 SE 6 9 29.8 1009 10 16.09344 0 0
8:55 pm 20:55 Clear 74 23.3 70 21.1 88 88 SE 8 13 29.8 1009 10 16.09344 0 0
9:15 pm 21:15 Clear 73 23 69 20.5 86 86 SE 8 13 29.8 1009 10 16.09344 0 0
9:35 pm 21:35 Clear 74 23.1 68 19.9 82 82 SE 9 15 29.8 1009 10 16.09344 0 0
9:55 pm 21:55 Clear 73 22.9 68 20 84 84 SSE 8 13 29.8 1009 10 16.09344 0 0
10:15 pm 22:15 Clear 73 23 69 20.4 85 85 SSE 9 15 29.8 1009 10 16.09344 0 0
10:35 pm 22:35 Clear 74 23.5 69 20.6 84 84 SSE 10 17 29.8 1009 10 16.09344 0 0
10:55 pm 22:55 Clear 74 23.6 69 20.7 84 84 SSE 8 13 29.8 1009 10 16.09344 0 0
11:15 pm 23:15 Clear 75 23.7 69 20.7 83 83 SSE 7 11 29.8 1009 10 16.09344 0 0
11:35 pm 23:35 Clear 74 23.6 69 20.8 84 84 S 7 11 29.8 1009 10 16.09344 0 0
11:55 pm 23:55 Clear 74 23.3 69 20.8 86 86 S 8 13 29.8 1009 10 16.09344 0 0

Powered by AerisWeather